This is the latest recevied weather packets stored in our database for station/object PY2TED-10. If no packets are shown the sender has not sent any weather packets the latest 1 day(s).
| Time | Temp. | Humidity | Pressure | Rain* | Wind** | Luminosity | Snow |
|---|---|---|---|---|---|---|---|
| 1778070133 | 22.78° C | 59% | 999.3 hPa | 0 mm | - | - | - |
| 1778068934 | 22.22° C | 59% | 999.2 hPa | 0 mm | - | - | - |
| 1778067140 | 22.22° C | 59% | 999 hPa | 0 mm | - | - | - |
| 1778065333 | 22.22° C | 59% | 998.7 hPa | 0 mm | - | - | - |
| 1778064738 | 22.22° C | 59% | 998.7 hPa | 0 mm | - | - | - |
| 1778064733 | 22.22° C | 59% | 998.6 hPa | 0 mm | - | - | - |
| 1778064133 | 22.22° C | 58% | 998.5 hPa | 0 mm | - | - | - |
| 1778063534 | 22.22° C | 58% | 998.5 hPa | 0 mm | - | - | - |
| 1778060533 | 22.78° C | 57% | 998 hPa | 0 mm | - | - | - |
| 1778059938 | 22.78° C | 57% | 997.8 hPa | 0 mm | - | - | - |
| 1778059933 | 22.78° C | 57% | 997.9 hPa | 0 mm | - | - | - |
| 1778059333 | 22.78° C | 57% | 997.7 hPa | 0 mm | - | - | - |
| 1778058734 | 22.78° C | 57% | 997.5 hPa | 0 mm | - | - | - |
| 1778058134 | 22.78° C | 57% | 997.4 hPa | 0 mm | - | - | - |
| 1778056938 | 22.78° C | 57% | 996.9 hPa | 0 mm | - | - | - |
| 1778055138 | 23.33° C | 57% | 997.1 hPa | 0 mm | - | - | - |
| 1778055133 | 22.78° C | 57% | 997.1 hPa | 0 mm | - | - | - |
| 1778054533 | 22.78° C | 58% | 997.1 hPa | 0 mm | - | - | - |
| 1778046726 | 24.44° C | 55% | 997.1 hPa | 0 mm | - | - | - |
| 1778046126 | 24.44° C | 55% | 997.2 hPa | 0 mm | - | - | - |
| 1778044930 | 24.44° C | 54% | 997.3 hPa | 0 mm | - | - | - |
| 1778044325 | 24.44° C | 54% | 997.2 hPa | 0 mm | - | - | - |
| 1778043725 | 25° C | 54% | 997.2 hPa | 0 mm | - | - | - |
| 1778043125 | 25° C | 54% | 997.3 hPa | 0 mm | - | - | - |
| 1778042525 | 25° C | 53% | 997.4 hPa | 0 mm | - | - | - |
* Rain latest hour (hover to see other rain measurements)
** Current wind speed in m/s (hover to see current wind gust speed)